User: anonymous   Login
Location: Newark
(41.9000°N, 12.4833°E)
Time: 00:32:47
(UTC+00:00)
Language:

ESTCUBE 1 - Orbit

View from above orbital plane
View from above orbital plane
View from above satellite
View from above satellite

Ground track
Ground track

The orbit data is extracted from the following two-line orbital elements,

1 39161U 13021C   19324.68391951  .00000174  00000-0  35440-4 0  9990
2 39161  97.9796  46.7884 0009395 183.0259 177.0880 14.72251652351173
Epoch (UTC): 20 November 2019 16:24:50
Eccentricity: 0.0009395
inclination: 97.9796°
perigee height: 647 km
apogee height: 660 km
right ascension of ascending node: 46.7884°
argument of perigee: 183.0259°
revolutions per day: 14.72251652
mean anomaly at epoch: 177.0880°
orbit number at epoch: 35117

The dashed part of the orbit path shows where the satellite is in the earth's shadow,  

DLR